Regional Weather Roundup
Issued by NWS Newport/Morehead, NC

Current Version | Previous Version | Graphics & Text | Print | Product List | Glossary On
Versions: 1 2 3 4 5 6 7 8 9 10 11 12 13 14 15 16 17 18 19 20 21 22 23 24 25 26 27 28 29 30 31 32 33 34 35 36 37 38 39 40 41 42 43 44 45 46 47 48 49 50
000
ASUS42 KMHX 060224
RWRMHX
WEATHER ROUNDUP FOR EASTERN NORTH CAROLINA
NATIONAL WEATHER SERVICE NEWPORT/MOREHEAD CITY NC
1000 PM EDT TUE MAY 05 2015

NOTE: "FAIR" INDICATES FEW OR NO CLOUDS BELOW 12,000 FEET
WITH NO SIGNIFICANT WEATHER AND/OR OBSTRUCTIONS TO VISIBILITY

NCZ015>017-031-032-045>047-102-103-060300-
NORTH COAST

CITY           SKY/WX    TMP DP  RH WIND       PRES   REMARKS
EDENTON        MOCLDY    65  56  71 S7        30.30S
ELIZABETH CITY MOCLDY    66  52  60 S7        30.29R
KITTY HAWK     MOCLDY    67  56  67 S3        30.30R
MANTEO         MOCLDY    66  60  81 S6        30.31R

$$

NCZ045>047-081-094-103-104-060300-
CENTRAL COAST

CITY           SKY/WX    TMP DP  RH WIND       PRES   REMARKS
FRISCO         PTCLDY    65  57  75 S7        30.31R
SWANQUARTER      N/A     68 N/A N/A S7        30.27S

$$

NCZ095-097-098-100-101-060300-
SOUTHERN COAST

CITY           SKY/WX    TMP DP  RH WIND       PRES   REMARKS
BEAUFORT       PTCLDY    64  58  80 SE3       30.30R
CEDAR ISLAND     N/A     66 N/A N/A S3        30.36R
JACKSONVILLE   PTCLDY    61  56  83 CALM      30.29R
PINEY ISLAND   PTCLDY   N/A N/A N/A S3        30.30R
WILMINGTON     PTCLDY    61  55  81 CALM      30.29R


$$

NCZ011>013-027>030-043-044-078>080-089-090>093-098-060300-
COASTAL PLAIN

CITY           SKY/WX    TMP DP  RH WIND       PRES   REMARKS
AHOSKIE        PTCLDY    65  52  62 S3        30.29R
CLINTON        MOCLDY    65  55  69 CALM      30.29R
ELIZABETHTOWN  MOCLDY    63  53  71 CALM      30.28S
GOLDSBORO      MOCLDY    66  52  59 CALM      30.27R
GREENVILLE     MOCLDY    66  52  59 S5        30.30R
HAVELOCK       PTCLDY    59  53  80 E3        30.31R
KENANSVILLE    MOCLDY    59  52  78 CALM      30.30S
KINSTON        MOCLDY    64  52  63 CALM      30.30R
NEW BERN       MOCLDY    58  52  80 CALM      30.31R
RICHLANDS      MOCLDY    57  52  82 CALM      30.31R
ROCKY MOUNT    PTCLDY    68  50  52 S6        30.28R
WASHINGTON     MOCLDY    65  52  62 CALM      30.31R
WHITEVILLE     PTCLDY    62  56  82 CALM      30.28R

$$

AMZ130-135-150-152-154-156-158-170-250-252-270-ANZ085-086-088-633-658-670-060300-
MARINE OBSERVATIONS

STATION/POSITION TIME  TEMP    WIND        PRES    WAVE   SWELL
                       AIR SEA DIR/SP/G            HT/PER HT/PER
                 (UTC) (F)     (DEG/KT/KT) (MB)    (FT/S) (FT/S)
CHESAPEAKE LIGHT 0200   65     200/ 21/ 22 1025.9
64 E VA BEACH    0150   63 61  200/ 12/ 14 1025.6    2/11   2/11
DUCK             0200   68 52  180/ 10/ 12 1025.0
2 E DUCK         0211      55                N/A     1/11
OREGON INLET     0200   69 72  180/  9/ 12 1026.3
13E OREGON INLT  0200      60                N/A     2/12   2/12
HATTERAS CG      0200   69 69  160/  6/  9 1025.8
DIAMOND BUOY     0150   71 76  160/ 14/ 16 1026.2    3/11   2/11
CAPE LOOKOUT     0200   68     150/  5/  6 1025.7
BEAUFORT LAB     0200   67 68  150/  5/  5 1025.0
27 SE WRIGHTSVLE 0200   68 71  150/  8/ 10   N/A
5 SE WRIGHTSVLE  NOT AVBL
225 S CAPE HAT   0150   70 70  100/ 17/ 21 1024.6    6/ 7   2/11
41 SE CHARLESTON 0150   74 74   80/ 14/ 16 1023.4    4/ 7   2/11

$$


USA.gov is the U.S. government's official web portal to all federal, state and local government web resources and services.